Location: Newark
(35.0167°N, 135.7667°E)
Time: 18:17:10
(UTC+00:00)

N. Korean satellite - Pass Details

Date: 25 October 2019
Orbit: 456 x 506 km, 97.2° (Epoch: 12 November)

Event Time Altitude Azimuth Distance (km) Brightness Sun altitude
Rises 08:30:05 0° 183° (S) 2,458 10.3 -4.7°
Reaches altitude 10° 08:32:11 10° 191° (SSW) 1,591 9.5 -5.1°
Maximum altitude 08:35:24 38° 262° (W) 711 8.2 -5.7°
Drops below altitude 10° 08:38:39 10° 332° (NNW) 1,617 9.5 -6.4°
Sets 08:40:49 0° 340° (NNW) 2,503 10.3 -6.8°
